Regional Weather Roundup
Issued by NWS

Home | Current Version | Previous Version | Graphics & Text | Print | Product List | Glossary On
Versions: 1 2 3 4 5 6 7 8 9 10 11 12 13 14 15 16 17 18 19 20 21 22 23 24 25 26 27 28 29 30 31 32 33 34 35 36 37 38 39 40 41 42 43 44 45 46 47 48 49 50
000
ASUS45 KCYS 051710
RWRWY

WYOMING REGIONAL WEATHER ROUNDUP
NATIONAL WEATHER SERVICE CHEYENNE WY
1100 AM MDT TUE MAY 05 2015

NOTE:  "FAIR" INDICATES FEW OR NO CLOUDS BELOW 12,000 FEET
WITH NO SIGNIFICANT WEATHER AND/OR OBSTRUCTIONS TO VISIBILITY.

WYZ001-051800-
YELLOWSTONE NATIONAL PARK

CITY           SKY/WX    TMP DP  RH WIND       PRES   REMARKS
LK YELLOWSTONE   N/A     47  31  53 E6        30.01F
W YELLOWSTONE  NOT AVBL

$$
WYZ002>013-054>058-071-098>099-051800-
NORTHERN WYOMING

CITY           SKY/WX    TMP DP  RH WIND       PRES   REMARKS
JACKSON        MOSUNNY   54  39  58 CALM      29.95F
CODY           PTSUNNY   64  39  39 CALM      29.85F
GREYBULL       FAIR      69  42  37 S7        29.80F
WORLAND        FAIR      69  41  36 VRB5      29.81F
SHERIDAN       FAIR      67  46  47 VRB5      29.82F
BUFFALO          N/A     65  32  29 MISG      29.87F
GILLETTE       FAIR      57  45  64 S23G29    29.89F
HULETT         FAIR      68  45  42 S14       29.91F
NEWCASTLE      FAIR      61  45  55 S14G26    29.95S

$$
WYZ014>020-022>026-101>103-051800-
CENTRAL WYOMING

CITY           SKY/WX    TMP DP  RH WIND       PRES   REMARKS
BIG PINEY      FAIR      56  37  49 VRB3      29.95F
PINEDALE       FAIR      55  36  47 W5        29.95F
DUBOIS         PTSUNNY   54  34  47 CALM      29.94S
LANDER         FAIR      60  42  51 VRB5      29.87F
RIVERTON       FAIR      61  41  47 CALM      29.88F
CASPER         FAIR      53  44  71 E8        29.90F
DOUGLAS        CLOUDY    52  45  77 SE20G25   29.94S

$$
WYZ021-027>030-104>119-051800-
SOUTHERN WYOMING

CITY           SKY/WX    TMP DP  RH WIND       PRES   REMARKS
EVANSTON       CLOUDY    53  39  59 VRB3      29.95F
KEMMERER       FAIR      57  37  47 CALM      29.96F
FORT BRIDGER   PTSUNNY   54  47  77 CALM      29.98F
ROCK SPRINGS   FAIR      56  39  53 VRB3      29.93F
DIXON          FAIR      60  40  48 NW5       29.92F
RAWLINS        FAIR      54  40  59 VRB5      29.94F
SARATOGA       FAIR      54  43  66 MISG      29.94F
LARAMIE        FAIR      51  40  65 SE23      29.95R
CHEYENNE       FOG       46  45  96 S12       29.98F VSB 1/2
TORRINGTON     CLOUDY    56  46  69 SE8       29.95F
PINE BLUFFS    CLOUDY    50  46  87 SE14      29.99S

$$


USA.gov is the U.S. government's official web portal to all federal, state and local government web resources and services.